Content
SEND FEEDBACK

Ukraine Flag

CHUBAYEVKA, UKRAINE


Home > Europe > Ukraine
Elevation: 138 feet     Latitude: 46 25N     Longitude: 030 46E

WEATHER
 
SELECT A DAY
Number of Records: 348,875;   Date Range: 7/1/96 - 3/22/16
 
SHARE

PRINT THIS DATA

[ ← Previous Day ]
WEATHER ALMANAC - FEBRUARY 1, 2013
[ Next Day → ]
[ °C ]   °F
Weather ElementAverageHighLow
Temperature34.3 °F39 °F (11:00 am)28.4 °F (10:00 pm)
Dewpoint29.7 °F34 °F (2:00 am)24.8 °F (10:00 pm)
Humidity83.2 %100 % (12:30 am)67 % (2:00 pm)
Barometer29.73 in29.78 in (2:00 am)29.68 in (12:00 pm)
Wind Speed3.9 mph8.9 mph (12:30 am)
Weather ElementAverage
Visibility6.1 mi
Wind DirectionSSW (187 °)

Weather ElementTotal
Precipitation---
Heating Degree Days31.3 (Base 65)
Averaged from 60 records on February 1, 2013
WEATHER CONDITIONS BREAKOUT
WIND DIRECTION BREAKOUT
WEATHER BY HOUR - FEBRUARY 1, 2013
[ °C ]   °F
Local TimeTemperatureDewpointHumidityBarometerVisibilityWind DirectionWind SpeedGust SpeedPrecipitationEventsConditions
12:30 AM32.0 °F32.0 °F100 %29.77 inWNW (290°)8.9 mphMist
1:00 AM33.8 °F32.0 °F93 %29.77 inWest (280°)8.9 mphMist
1:30 AM33.8 °F32.0 °F93 %29.77 inWest (280°)6.7 mphMist
2:00 AM36.0 °F34.0 °F87 %29.78 in7.0 miWest (270°)4.5 mphOvercast
2:00 AM33.8 °F33.8 °F100 %29.77 inCalmMist
2:30 AM33.8 °F33.8 °F100 %29.77 inWNW (290°)6.7 mphMostly Cloudy
3:00 AM33.8 °F33.8 °F100 %29.77 inWest (280°)8.9 mphOvercast
3:30 AM35.6 °F32.0 °F87 %29.77 inWest (270°)8.9 mphOvercast
4:00 AM35.6 °F30.2 °F81 %29.77 inWSW (250°)4.5 mphMostly Cloudy
4:30 AM35.6 °F30.2 °F81 %29.74 in2.8 miWest (270°)4.5 mphMostly Cloudy
5:00 AM36.0 °F33.0 °F85 %29.77 in16.0 miWest (260°)6.7 mphOvercast
5:00 AM35.6 °F30.2 °F81 %29.74 in6.2 miWest (280°)4.5 mphMostly Cloudy
5:30 AM37.4 °F30.2 °F75 %29.74 in6.2 miWest (270°)4.5 mphMostly Cloudy
6:00 AM35.6 °F28.4 °F75 %29.74 in6.2 miWest (260°)4.5 mphOvercast
6:30 AM35.6 °F30.2 °F81 %29.74 in6.2 miWest (260°)4.5 mphMostly Cloudy
7:00 AM33.8 °F30.2 °F87 %29.71 in6.2 miSSW (200°)2.2 mphMostly Cloudy
7:30 AM33.8 °F28.4 °F81 %29.74 inWSW (240°)4.5 mphClear
8:00 AM36.0 °F33.0 °F82 %29.74 in15.0 miWSW (250°)6.7 mphOvercast
8:00 AM33.8 °F28.4 °F81 %29.74 inWSW (240°)4.5 mphClear
8:30 AM33.8 °F26.6 °F75 %29.71 inVariable4.5 mphClear
9:00 AM33.8 °F28.4 °F81 %29.71 inSW (230°)4.5 mphClear
9:30 AM35.6 °F28.4 °F75 %29.71 inSW (220°)4.5 mphClear
10:00 AM37.4 °F30.2 °F75 %29.71 inVariable2.2 mphClear
10:30 AM37.4 °F30.2 °F75 %29.71 inWSW (250°)6.7 mphClear
11:00 AM39.0 °F32.0 °F68 %29.75 in16.0 miWest (260°)4.5 mphOvercast
11:00 AM37.4 °F28.4 °F70 %29.71 inWSW (240°)6.7 mphClear
11:30 AM37.4 °F28.4 °F70 %29.71 inSW (230°)6.7 mphClear
12:00 PM37.4 °F28.4 °F70 %29.68 inWSW (250°)4.5 mphClear
12:30 PM37.4 °F28.4 °F70 %29.68 in6.2 miSW (230°)4.5 mphMostly Cloudy
1:00 PM37.4 °F28.4 °F70 %29.68 in6.2 miCalmMostly Cloudy
1:30 PM37.4 °F28.4 °F70 %29.71 in6.2 miWSW (240°)2.2 mphMostly Cloudy
2:00 PM39.0 °F32.0 °F67 %29.73 in9.0 miWest (260°)4.5 mphOvercast
2:00 PM37.4 °F30.2 °F75 %29.71 in6.2 miSW (220°)4.5 mphMostly Cloudy
2:30 PM37.4 °F30.2 °F75 %29.68 in6.2 miCalmMostly Cloudy
3:00 PM35.6 °F30.2 °F81 %29.71 in6.2 miNW (310°)4.5 mphMostly Cloudy
3:30 PM35.6 °F32.0 °F87 %29.71 in6.2 miNW (320°)4.5 mphMostly Cloudy
4:00 PM35.6 °F30.2 °F81 %29.71 in6.2 miCalmMostly Cloudy
4:30 PM35.6 °F30.2 °F81 %29.71 inWest (270°)4.5 mphMostly Cloudy
5:00 PM35.6 °F30.2 °F81 %29.71 inCalmMostly Cloudy
5:00 PM36.0 °F34.0 °F87 %29.71 in4.0 miWSW (250°)4.5 mphMist
5:30 PM33.8 °F30.2 °F87 %29.71 inWest (260°)4.5 mphMostly Cloudy
6:00 PM33.8 °F30.2 °F87 %29.71 inVariable4.5 mphMist
6:13 PM33.8 °F30.2 °F87 %29.71 in1.7 miCalmMist
6:30 PM32.0 °F28.4 °F87 %29.71 inCalmMist
6:54 PM32.0 °F28.4 °F87 %29.74 in1.8 miCalmMist
7:00 PM32.0 °F28.4 °F87 %29.74 inCalmMist
7:30 PM32.0 °F28.4 °F87 %29.74 inWest (260°)4.5 mphMist
8:00 PM35.0 °F31.0 °F79 %29.74 in5.0 miWest (260°)4.5 mphMist
8:00 PM32.0 °F28.4 °F87 %29.74 inWest (270°)4.5 mphMist
8:03 PM30.2 °F28.4 °F93 %29.74 in1.7 miWest (270°)2.2 mphMist
8:30 PM30.2 °F28.4 °F93 %29.74 in2.2 miWest (280°)4.5 mphMist
9:00 PM30.2 °F28.4 °F93 %29.74 inWNW (300°)6.7 mphMist
9:05 PM30.2 °F28.4 °F93 %29.74 in1.7 miWNW (300°)6.7 mphMist
9:30 PM30.2 °F26.6 °F86 %29.74 in1.6 miCalmMist
9:43 PM30.2 °F26.6 °F86 %29.74 inCalmMist
10:00 PM28.4 °F24.8 °F86 %29.74 inCalmMist
10:30 PM28.4 °F24.8 °F86 %29.74 inCalmMist
11:00 PM34.0 °F32.0 °F90 %29.76 in5.0 miWest (260°)6.7 mphMist
11:00 PM28.4 °F24.8 °F86 %29.74 inCalmMist
11:30 PM28.4 °F26.6 °F93 %29.74 inWSW (240°)2.2 mphMist
Hourly data recorded from UKOO, located miles away from Chubayevka, Ukraine




STORIES FROM OUR PARTNERS